Find Starlink 34548

NORAD ID: 64716 Int'l Des: 2025-142 Owner: SPXS Country: US Constellation: starlink operational
LEOCIRCULAR

現在のビュー

3D地球を読み込み中...

About Starlink 34548

Starlink 34548 (NORAD 64716) is a starlink constellation satellite (v2 mini) launched Jun 28, 2025 by SPXS of US. It operates in LEO, CIRCULAR orbit with a mass of 575.00 kg.

次回通過

Passes for default location (London). Set your location on the main map for personalized predictions.

高度履歴

Loading altitude history...

軌道要素

1 64716U 25142W 26261.77203058 .00019194 00000-0 67028-3 0 9997
2 64716 70.0040 185.5948 0002010 276.2842 83.8104 15.29590443 68438
Epoch: Sep 18, 2026 • Age: 47 hours

現在のステータス

高度 479.1 km
遠地点 / 近地点 N/A
速度 7.63 km/s
衛星直下点 18.63°N, 77.7°W
打ち上げ日 Jun 28, 2025
運用期間 1.2 years
タイプ internet

技術仕様

分類 Payload
質量 575.00 kg
乾燥質量 530.00 kg
長さ 0.30 m
スパン 29.00 m
形状 ? Box + pan
製造者 SPXS
バスタイプ Starlink V2MO
フェーズステータス In Orbit
所有者/国 SPXS/US

Most Searched